Date,TemperatureHighF,TemperatureAvgF,TemperatureLowF,DewpointHighF,DewpointAvgF,DewpointLowF,HumidityHigh,HumidityAvg,HumidityLow,PressureMaxIn,PressureMinIn,WindSpeedMaxMPH,WindSpeedAvgMPH,GustSpeedMaxMPH,PrecipitationSumIn
2013-1-1,75.0,64.4,56.0,56.0,54.0,51.0,95,71,50,0.00,40.00,23,13,34,0.00
2013-1-2,72.0,64.7,59.0,54.0,51.2,44.0,76,63,50,0.00,40.00,23,17,35,0.00
2013-1-3,73.0,64.7,60.0,54.0,51.2,49.0,82,63,45,0.00,40.00,25,20,37,0.00
2013-1-4,70.0,62.7,59.0,58.0,54.7,53.0,90,76,60,0.00,40.00,31,23,44,0.01
2013-1-5,69.0,61.7,58.0,57.0,54.3,51.0,86,77,60,0.00,40.00,23,18,34,0.09
2013-1-6,72.0,61.6,57.0,59.0,55.6,51.0,91,82,58,0.00,40.00,17,13,30,0.04
2013-1-7,73.0,63.9,60.0,57.0,51.8,42.0,90,67,40,0.00,40.00,22,16,32,0.01
2013-1-8,74.0,65.0,60.0,56.0,49.6,41.0,78,58,41,0.00,40.00,24,19,36,0.00
2013-1-9,74.0,64.1,60.0,59.0,56.6,55.0,91,78,53,0.00,40.00,18,13,29,0.00
2013-1-10,72.0,63.3,59.0,56.0,52.7,49.0,87,69,48,0.00,40.00,20,16,30,0.00
2013-1-11,73.0,64.2,58.0,61.0,53.0,46.0,87,68,45,0.00,40.00,17,10,24,0.00
2013-1-12,70.0,63.1,58.0,62.0,58.8,55.0,97,86,70,0.00,40.00,12,6,18,0.06
2013-1-13,69.0,63.4,59.0,64.0,60.4,57.0,97,90,75,0.00,40.00,8,5,16,3.17
2013-1-14,72.0,64.4,59.0,64.0,60.6,56.0,98,88,71,0.00,40.00,8,3,15,0.33
2013-1-15,69.0,63.2,61.0,64.0,61.1,57.0,99,93,79,0.00,40.00,8,4,15,1.06
2013-1-16,66.0,62.3,59.0,63.0,60.7,57.0,99,95,82,0.00,40.00,6,4,12,0.56
2013-1-17,68.0,61.5,59.0,60.0,58.7,57.0,97,90,73,0.00,40.00,9,4,14,0.00
2013-1-18,67.0,60.6,54.0,60.0,56.2,50.0,97,86,62,0.00,40.00,8,4,14,0.36
2013-1-19,67.0,60.3,56.0,60.0,56.8,53.0,97,89,72,0.00,40.00,7,4,13,0.45
2013-1-20,68.0,59.0,51.0,59.0,54.5,48.0,94,85,70,0.00,40.00,8,4,13,0.00
2013-1-21,76.0,64.4,53.0,51.0,46.2,37.0,83,54,33,0.00,40.00,27,15,38,0.00
2013-1-22,77.0,65.7,56.0,51.0,45.4,22.0,79,51,20,0.00,40.00,27,18,36,0.00
2013-1-23,73.0,62.9,57.0,57.0,53.2,47.0,90,72,53,0.00,40.00,19,13,33,0.00
2013-1-24,70.0,61.5,58.0,59.0,56.4,52.0,96,85,58,0.00,40.00,13,7,21,0.02
2013-1-25,66.0,60.2,56.0,60.0,57.7,52.0,99,92,75,0.00,40.00,11,7,17,0.35
2013-1-26,65.0,59.4,55.0,61.0,54.8,52.0,94,85,67,0.00,40.00,9,6,15,0.16
2013-1-27,65.0,59.6,57.0,60.0,56.2,52.0,96,89,76,0.00,40.00,9,4,14,0.25
2013-1-28,69.0,59.9,53.0,59.0,54.6,49.0,98,83,58,0.00,40.00,8,5,14,0.54
2013-1-29,67.0,61.5,59.0,62.0,59.7,57.0,100,94,81,0.00,40.00,12,5,18,1.25
2013-1-30,69.0,62.3,59.0,62.0,59.3,56.0,100,91,73,0.00,40.00,7,4,14,1.67
2013-1-31,68.0,63.0,59.0,62.0,58.8,54.0,97,87,75,0.00,40.00,17,8,29,0.02
2013-2-1,73.0,64.5,60.0,59.0,52.9,46.0,89,67,39,0.00,40.00,25,18,38,0.00
2013-2-2,80.0,64.9,57.0,56.0,45.8,26.0,74,52,25,0.00,40.00,23,15,36,0.00
2013-2-3,74.0,62.5,53.0,54.0,39.4,5.0,78,49,10,0.00,40.00,28,13,40,0.00
2013-2-4,73.0,63.5,57.0,53.0,49.7,47.0,76,62,42,0.00,40.00,28,22,42,0.00
2013-2-5,70.0,62.9,58.0,54.0,51.6,49.0,83,67,50,0.00,40.00,24,18,38,0.00
2013-2-6,75.0,65.7,60.0,56.0,53.8,52.0,81,67,46,0.00,40.00,18,13,27,0.00
2013-2-7,72.0,63.8,61.0,59.0,56.1,52.0,89,77,58,0.00,40.00,16,12,24,0.10
2013-2-8,75.0,64.7,58.0,55.0,52.9,49.0,83,67,42,0.00,40.00,16,12,25,0.02
2013-2-9,75.0,64.2,56.0,57.0,52.6,47.0,85,68,42,0.00,40.00,18,13,29,0.00
2013-2-10,73.0,65.1,59.0,55.0,50.8,45.0,84,62,37,0.00,40.00,23,17,38,0.00
2013-2-11,75.0,64.6,58.0,54.0,49.3,38.0,80,61,28,0.00,40.00,23,17,33,0.00
2013-2-12,75.0,62.2,57.0,52.0,50.3,47.0,78,66,44,0.00,40.00,20,15,31,0.00
2013-2-13,71.0,60.3,55.0,49.0,47.1,45.0,79,63,42,0.00,40.00,19,14,30,0.00
2013-2-14,70.0,60.7,54.0,51.0,48.7,47.0,83,66,45,0.00,40.00,20,15,31,0.00
2013-2-15,70.0,61.6,56.0,57.0,52.0,46.0,81,71,54,0.00,40.00,20,13,30,0.01
2013-2-16,66.0,60.5,57.0,56.0,53.9,51.0,91,80,62,0.00,40.00,29,18,43,0.20
2013-2-17,67.0,60.3,56.0,56.0,51.4,46.0,88,73,51,0.00,40.00,24,20,41,0.06
2013-2-18,64.0,59.0,56.0,58.0,53.7,50.0,89,82,76,0.00,40.00,26,19,39,0.20
2013-2-19,69.0,60.8,56.0,52.0,50.7,47.0,86,71,46,0.00,40.00,27,20,39,0.01
2013-2-20,70.0,63.1,58.0,56.0,52.5,48.0,85,69,51,0.00,40.00,26,18,39,0.00
2013-2-21,76.0,63.8,58.0,60.0,54.5,47.0,96,73,45,0.00,40.00,16,11,25,0.93
2013-2-22,65.0,60.5,58.0,58.0,55.9,54.0,93,85,75,0.00,40.00,18,13,27,1.29
2013-2-23,67.0,60.3,56.0,58.0,55.4,52.0,94,85,65,0.00,40.00,13,11,22,0.16
2013-2-24,67.0,61.0,56.0,58.0,55.6,53.0,94,83,70,0.00,40.00,24,18,38,0.18
2013-2-25,72.0,61.8,58.0,58.0,54.5,51.0,94,78,55,0.00,40.00,26,18,41,0.04
2013-2-26,69.0,61.0,56.0,56.0,52.6,48.0,91,75,54,0.00,40.00,24,22,37,0.04
2013-2-27,72.0,61.3,56.0,55.0,52.5,47.0,93,75,46,0.00,40.00,27,20,38,0.04
2013-2-28,71.0,61.7,55.0,52.0,49.1,46.0,80,64,47,0.00,40.00,28,21,39,0.00
2013-3-1,69.0,61.6,56.0,50.0,48.3,46.0,78,63,47,0.00,40.00,28,24,45,0.00
2013-3-2,72.0,62.6,57.0,54.0,48.6,44.0,80,61,44,0.00,40.00,34,25,52,0.00
2013-3-3,79.0,63.6,57.0,54.0,50.4,45.0,86,65,30,0.00,40.00,26,19,40,0.00
2013-3-4,74.0,62.7,56.0,52.0,49.4,46.0,79,63,42,0.00,40.00,21,17,33,0.00
2013-3-5,74.0,62.7,55.0,56.0,50.4,44.0,87,66,38,0.00,40.00,17,13,27,0.00
2013-3-6,72.0,62.8,56.0,59.0,54.7,51.0,88,76,51,0.00,40.00,18,11,29,0.00
2013-3-7,72.0,60.9,55.0,59.0,55.4,52.0,98,83,57,0.00,40.00,14,8,24,0.00
2013-3-8,68.0,60.5,54.0,60.0,56.9,51.0,99,88,71,0.00,40.00,9,5,16,0.13
2013-3-9,67.0,60.8,56.0,61.0,57.9,53.0,99,91,75,0.00,40.00,11,6,18,0.14
2013-3-10,69.0,63.1,58.0,62.0,60.1,55.0,99,90,72,0.00,40.00,13,7,26,0.10
2013-3-11,71.0,62.9,56.0,62.0,58.0,50.0,98,85,66,0.00,40.00,10,6,16,0.25
2013-3-12,66.0,62.6,61.0,63.0,61.0,58.0,99,94,89,0.00,40.00,9,4,14,0.24
2013-3-13,71.0,63.0,58.0,62.0,57.9,51.0,93,83,69,0.00,40.00,13,7,25,0.01
2013-3-14,70.0,61.9,56.0,61.0,57.7,51.0,98,87,69,0.00,40.00,10,4,17,0.27
2013-3-15,64.0,61.3,59.0,63.0,60.2,56.0,100,96,90,0.00,40.00,12,7,26,0.82
2013-3-16,66.0,61.2,57.0,62.0,58.3,56.0,97,91,79,0.00,40.00,10,6,15,0.03
2013-3-17,61.0,58.9,58.0,59.0,57.1,56.0,98,94,90,0.00,40.00,7,3,10,0.04
2013-3-18,67.0,60.2,56.0,60.0,56.4,54.0,98,88,72,0.00,40.00,11,6,19,0.01
2013-3-19,70.0,61.8,53.0,62.0,56.8,51.0,98,84,67,0.00,40.00,11,6,18,0.01
2013-3-20,68.0,61.8,56.0,63.0,58.8,54.0,98,90,77,0.00,40.00,8,5,14,0.37
2013-3-21,71.0,63.7,59.0,63.0,59.5,57.0,96,87,68,0.00,40.00,13,7,20,0.03
2013-3-22,71.0,62.3,55.0,61.0,57.7,51.0,97,85,64,0.00,40.00,10,5,20,0.03
2013-3-23,67.0,61.4,58.0,62.0,58.9,55.0,98,92,82,0.00,40.00,10,6,16,0.04
2013-3-24,70.0,62.5,57.0,64.0,58.2,51.0,98,86,71,0.00,40.00,12,6,23,0.01
2013-3-25,68.0,62.5,59.0,63.0,61.0,58.0,99,95,85,0.00,40.00,10,4,14,0.01
2013-3-26,72.0,63.4,60.0,62.0,59.2,56.0,98,87,57,0.00,40.00,13,6,20,0.01
2013-3-27,70.0,63.2,59.0,61.0,57.4,54.0,95,82,65,0.00,40.00,12,8,18,0.00
2013-3-28,74.0,66.7,61.0,58.0,53.2,50.0,77,63,45,0.00,40.00,22,14,34,0.00
2013-3-29,74.0,64.2,59.0,61.0,57.1,51.0,99,79,56,0.00,40.00,16,10,28,0.07
2013-3-30,67.0,61.9,59.0,62.0,58.1,-99.9,99,93,79,0.00,40.00,11,5,16,0.37
2013-3-31,64.0,60.9,59.0,61.0,59.3,58.0,98,95,88,0.00,40.00,8,4,12,0.35
2013-4-1,63.0,59.1,56.0,59.0,54.6,50.0,99,86,73,0.00,40.00,11,6,17,0.01
2013-4-2,66.0,59.3,56.0,57.0,54.5,52.0,93,85,66,0.00,40.00,10,4,17,0.01
2013-4-3,67.0,59.0,53.0,57.0,54.4,49.0,95,85,70,0.00,40.00,11,7,19,0.01
2013-4-4,66.0,60.8,54.0,61.0,56.4,52.0,95,86,72,0.00,40.00,12,7,21,0.01
2013-4-5,72.0,63.9,59.0,63.0,58.7,55.0,92,84,61,0.00,40.00,14,8,23,0.00
2013-4-6,75.0,66.4,60.0,63.0,59.8,58.0,93,80,59,0.00,40.00,17,11,28,0.00
2013-4-7,75.0,65.9,59.0,64.0,59.1,56.0,92,80,58,0.00,40.00,18,9,28,0.00
2013-4-8,74.0,64.8,59.0,61.0,57.8,55.0,99,80,51,0.00,40.00,16,10,28,0.01
2013-4-9,73.0,64.4,59.0,62.0,58.1,54.0,93,81,61,0.00,40.00,18,9,28,0.02
2013-4-10,76.0,67.2,59.0,59.0,56.7,53.0,89,71,47,0.00,40.00,18,13,30,0.00
2013-4-11,74.0,65.4,61.0,63.0,59.7,57.0,95,82,63,0.00,40.00,17,9,29,0.02
2013-4-12,69.0,63.4,58.0,63.0,58.0,55.0,95,83,70,0.00,40.00,11,7,18,0.00
2013-4-13,69.0,63.2,59.0,63.0,59.9,53.0,99,89,75,0.00,40.00,10,6,18,0.02
2013-4-14,68.0,63.4,61.0,64.0,61.2,56.0,99,93,79,0.00,40.00,8,4,13,0.05
2013-4-15,71.0,63.7,57.0,64.0,60.5,55.0,98,90,70,0.00,40.00,9,5,14,0.02
2013-4-16,70.0,64.0,59.0,64.0,60.3,57.0,99,88,73,0.00,40.00,11,7,20,0.01
2013-4-17,75.0,66.1,60.0,62.0,57.3,54.0,92,74,51,0.00,40.00,22,12,32,0.01
2013-4-18,77.0,66.6,60.0,59.0,56.7,53.0,88,73,45,0.00,40.00,18,14,28,0.01
2013-4-19,69.0,62.9,60.0,64.0,58.5,52.0,98,87,62,0.00,40.00,17,10,29,0.18
2013-4-20,72.0,63.4,57.0,64.0,58.8,54.0,99,86,62,0.00,40.00,12,6,23,0.25
2013-4-21,65.0,62.5,61.0,64.0,61.6,60.0,99,97,85,0.00,40.00,9,4,15,1.09
2013-4-22,71.0,64.6,61.0,65.0,61.4,59.0,98,90,70,0.00,40.00,8,3,15,0.01
2013-4-23,71.0,63.4,60.0,65.0,61.6,56.0,100,94,80,0.00,40.00,8,4,14,0.12
2013-4-24,70.0,63.9,58.0,65.0,61.1,58.0,100,91,78,0.00,40.00,12,6,20,0.02
2013-4-25,77.0,67.3,59.0,58.0,55.2,50.0,89,66,50,0.00,40.00,19,13,30,0.00
2013-4-26,76.0,66.9,61.0,58.0,54.8,52.0,81,67,46,0.00,40.00,20,14,31,0.00
2013-4-27,70.0,64.5,59.0,63.0,58.0,54.0,92,80,60,0.00,40.00,13,8,20,0.00
2013-4-28,71.0,63.7,58.0,66.0,60.9,56.0,100,91,67,0.00,40.00,11,5,20,0.13
2013-4-29,65.0,62.7,61.0,64.0,62.2,61.0,100,98,95,0.00,40.00,8,4,13,0.59
2013-4-30,67.0,62.7,59.0,65.0,61.8,57.0,100,96,89,0.00,40.00,14,8,20,0.07
2013-5-1,75.0,64.4,57.0,64.0,58.3,53.0,91,81,56,0.00,40.00,18,12,27,0.01
2013-5-2,72.0,62.7,57.0,64.0,58.3,52.0,96,86,61,0.00,40.00,15,11,22,0.04
2013-5-3,73.0,63.3,57.0,61.0,55.6,51.0,97,77,47,0.00,40.00,15,7,25,0.04
2013-5-4,67.0,62.1,59.0,63.0,59.6,56.0,99,92,78,0.00,40.00,10,5,15,0.32
2013-5-5,65.0,62.1,60.0,63.0,60.9,59.0,99,96,91,0.00,40.00,6,3,11,0.30
2013-5-6,72.0,65.0,57.0,65.0,61.3,54.0,99,88,69,0.00,40.00,8,5,16,0.08
2013-5-7,74.0,67.1,59.0,65.0,62.1,57.0,99,85,62,0.00,40.00,8,5,16,0.00
2013-5-8,75.0,67.8,61.0,66.0,62.9,57.0,99,86,69,0.00,40.00,9,4,15,0.04
2013-5-9,70.0,66.2,64.0,67.0,64.9,61.0,99,96,88,0.00,40.00,9,3,13,0.40
2013-5-10,69.0,65.8,64.0,67.0,65.4,63.0,100,98,88,0.00,40.00,8,4,15,0.49
2013-5-11,69.0,65.5,63.0,66.0,62.3,-99.9,99,92,82,0.00,40.00,11,6,18,0.01
2013-5-12,76.0,67.4,63.0,64.0,61.7,58.0,99,83,61,0.00,40.00,17,9,26,0.03
2013-5-13,75.0,68.2,62.0,61.0,58.7,55.0,88,73,54,0.00,40.00,19,12,28,0.02
2013-5-14,77.0,68.0,61.0,61.0,57.3,54.0,86,70,51,0.00,40.00,21,14,32,0.00
2013-5-15,75.0,67.2,61.0,60.0,57.9,55.0,88,74,52,0.00,40.00,18,12,27,0.00
2013-5-16,74.0,60.6,61.0,62.0,34.4,-99.9,87,73,48,0.00,40.00,18,12,26,0.00
2013-5-17,73.0,64.1,60.0,61.0,53.7,-99.9,94,81,57,0.00,40.00,17,10,26,0.04
2013-5-18,68.0,63.1,61.0,62.0,59.9,57.0,99,90,76,0.00,40.00,11,6,17,0.10
2013-5-19,66.0,62.7,59.0,64.0,61.3,58.0,99,95,88,0.00,40.00,8,4,13,0.56
2013-5-20,70.0,64.7,61.0,66.0,63.0,60.0,100,94,75,0.00,40.00,10,5,19,0.77
2013-5-21,72.0,64.7,57.0,65.0,61.6,54.0,100,90,71,0.00,40.00,8,4,17,1.01
2013-5-22,72.0,65.3,59.0,66.0,62.6,58.0,99,92,72,0.00,40.00,10,5,16,0.72
2013-5-23,78.0,68.8,62.0,65.0,60.9,58.0,94,77,57,0.00,40.00,18,11,29,0.04
2013-5-24,74.0,67.5,63.0,61.0,58.3,53.0,90,73,59,0.00,40.00,25,14,39,0.00
2013-5-25,77.0,67.9,62.0,62.0,59.0,55.0,93,74,53,0.00,40.00,22,15,31,0.00
2013-5-26,72.0,65.3,62.0,65.0,60.2,54.0,96,84,69,0.00,40.00,22,11,31,0.12
2013-5-27,69.0,64.3,62.0,62.0,59.5,57.0,94,85,73,0.00,40.00,12,8,19,0.02
2013-5-28,72.0,65.9,61.0,66.0,62.1,57.0,99,88,71,0.00,40.00,13,8,19,0.09
2013-5-29,71.0,65.8,63.0,67.0,63.3,57.0,98,92,78,0.00,40.00,15,8,23,0.12
2013-5-30,82.0,68.5,61.0,66.0,60.0,55.0,87,76,46,0.00,40.00,13,8,25,0.01
2013-5-31,76.0,67.6,63.0,66.0,62.7,58.0,97,85,67,0.00,40.00,15,9,24,0.00
2013-6-1,79.0,69.8,63.0,63.0,60.0,56.0,96,72,53,0.00,40.00,25,16,38,0.00
2013-6-2,81.0,70.3,63.0,64.0,59.8,55.0,88,71,45,0.00,40.00,29,19,40,0.00
2013-6-3,79.0,68.5,62.0,59.0,56.3,54.0,83,67,46,0.00,40.00,24,20,36,0.00
2013-6-4,82.0,69.1,61.0,59.0,55.9,54.0,83,65,41,0.00,40.00,23,17,37,0.00
2013-6-5,80.0,68.8,61.0,58.0,54.4,44.0,79,62,37,0.00,40.00,22,16,34,0.00
2013-6-6,73.0,65.5,61.0,61.0,56.3,50.0,91,73,60,0.00,40.00,24,16,34,0.00
2013-6-7,77.0,66.1,60.0,60.0,56.0,51.0,84,71,50,0.00,40.00,21,15,32,0.00
2013-6-8,76.0,67.2,62.0,60.0,57.5,56.0,85,72,53,0.00,40.00,18,13,29,0.00
2013-6-9,78.0,68.4,62.0,60.0,57.6,55.0,89,70,49,0.00,40.00,20,15,29,0.00
2013-6-10,76.0,68.4,62.0,61.0,57.9,55.0,85,70,50,0.00,40.00,22,17,32,0.00
2013-6-11,77.0,68.4,61.0,60.0,57.7,56.0,85,70,51,0.00,40.00,19,14,29,0.00
2013-6-12,79.0,67.6,62.0,62.0,56.9,51.0,83,70,40,0.00,40.00,23,18,33,0.00
2013-6-13,76.0,67.1,61.0,60.0,57.6,54.0,89,73,54,0.00,40.00,26,17,37,0.01
2013-6-14,74.0,67.2,62.0,61.0,57.4,54.0,83,71,62,0.00,40.00,27,16,39,0.01
2013-6-15,77.0,68.1,61.0,58.0,55.4,53.0,89,66,43,0.00,40.00,19,15,30,0.00
2013-6-16,80.0,67.6,60.0,63.0,56.7,51.0,88,70,39,0.00,40.00,17,12,37,0.00
2013-6-17,78.0,66.9,62.0,60.0,58.3,55.0,92,76,46,0.00,40.00,17,12,27,0.00
2013-6-18,77.0,66.9,62.0,61.0,58.9,56.0,95,77,54,0.00,40.00,19,12,27,0.05
2013-6-19,73.0,66.2,61.0,60.0,58.1,55.0,94,76,61,0.00,40.00,18,13,28,0.06